Aeroporto :
LOGIN :

Iscrizione | Disclaimer

   EN    FR    IT 

 










Sommario :    VFR   VFR Marginale   IFR   IFR Intensivo   IFR Molto Intensivo
Visibilità : 
Base nubi : 
>= 8 km
>= 3000ft
5 / 8 km
1000 / 3000 ft
1500m / 5 km
500 / 1000 ft
800 / 1500m
200 / 500 ft
< 800m
< 200 ft
Simboli :   Temporali  Nebbia  Neve Forte  Precipitazioni Forti  Vento > 20 kt
SIGMETs :   Varie  Temporali  Ghiacco  Turbolenza  Onda orograficha  Ceneri Vulcaniche







- Altitudine del aeroporto : 412 ft
- Codice IATA : ORE
- Carte del aeroporto


LFOJ - Orleans

ULTIMO METAR :
  • 210000Z AUTO 04005KT 6000 NSC 06/04 Q1028

METARs OBSOLETI :
  • 202330Z AUTO 02006KT 7000 NSC 07/05 Q1028
  • 202300Z AUTO 02004KT 8000 NSC 07/05 Q1029
  • 202230Z AUTO 02005KT 8000 NSC 07/05 Q1029
  • 202200Z AUTO VRB02KT CAVOK 08/05 Q1029
  • 202130Z AUTO 06002KT CAVOK 08/05 Q1029

TAF AMD TAF LFOJ
Valido dal 20 a 04 ore il 21 a 03 ore UTC


200410Z 2004/2103 01007KT 6000 NSC
TEMPO 2004/2008 3000 BR BKN004
BECMG 2008/2010 BKN010
BECMG 2011/2012 SCT020
Nessun NOTAM noto per questo aeroporto.



MetMap, La meteo Aeronautica in un colpo d'occhio ! - Copyright ORBIFLY Dicembre 2007 - Disclaimer

ORBIFLY MET'MAP TEAM :

Programmazione e sviluppo : Alexandra Zaïnal
Concezione e sviluppo : Baudouin d'Aumeries
Co-Programmazione e sviluppo : Marc-Olivier Méhu
Supporto tecnico e logistico : Manuel Goepfert
Aiuto per la traduzione : Arnaldo La Scala

Contatto : metmap@orbifly.com




FONTI E CREDITI :

   NOAA